Flag for Australia Weather past 2 weeks in Alice Springs, Northern Territory, Australia

Now
79 °F

Sunny.


Feels Like: 78 °F
Forecast: 60 / 88 °F
Wind: 10 mph from Southeast

Location: Alice Springs Aerodrome

Current Time: Jan 27, 2015 at 1:24:46 PM

Latest Report: Jan 27, 2015 at 12:30 PM


Visibility: 10 mi

Pressure: 29.92 "Hg

Humidity: 24%

Dew point: 39 °F

Location of Alice SpringsLocation

Historic Weather in Alice Springs — Graph

°F

Alice Springs temperature yesterday

Maximum temperature yesterday: 84 °F (at 12:00 PM)
Minimum temperature yesterday: 70 °F (at 5:30 AM)
Average temperature yesterday: 78 °F

Past Weeks' High & Low Weather Summary

 TemperatureHumidityPressure
High106 °F (Jan 20, 1:00 PM)94% (Jan 13, 12:00 AM)30.01 "Hg (Jan 13, 12:00 AM)
Low61 °F (Jan 22, 4:30 AM)8% (Jan 20, 5:30 PM)29.71 "Hg (Jan 23, 4:30 PM)
Average83 °F40%29.85 "Hg
* Reported Jan 12 11:30 AM — Jan 27 11:30 AM, Alice Springs, Weather by CustomWeather, © 2014

Note: Actual official high and low records may vary slightly from our data, if they occured in-between our weather recording intervals... More about our weather records

Advertising

Alice Springs weather history for previous 24 hours

 ConditionsComfort  
Time TempWeatherWind HumidityBarometerVisibility
11:30 AM
Jan 27
77 °FSunny.10 mph26%29.95 "Hg10 mi
11:00 AM79 °FSunny.9 mph24%29.92 "Hg10 mi
10:30 AM77 °FSunny.10 mph26%29.95 "Hg10 mi
10:00 AM77 °FSunny.10 mph24%29.95 "Hg10 mi
9:30 AM77 °FSunny.12 mph26%29.95 "Hg10 mi
9:00 AM75 °FSunny.9 mph27%29.95 "Hg10 mi
8:30 AM75 °FSunny.7 mph29%29.95 "Hg10 mi
8:00 AM75 °FSunny.7 mph29%29.95 "Hg10 mi
7:30 AM73 °FSunny.6 mph31%29.92 "Hg10 mi
7:00 AM73 °FSunny.6 mph33%29.92 "Hg10 mi
6:30 AM72 °FSunny.6 mph38%29.89 "Hg10 mi
6:00 AM72 °FSunny.6 mph41%29.89 "Hg10 mi
5:30 AM72 °FClear.5 mph44%29.86 "HgN/A
5:00 AM72 °FPassing clouds.6 mph47%29.86 "HgN/A
4:30 AM73 °FClear.5 mph44%29.86 "HgN/A
3:30 AM72 °FPassing clouds.5 mph57%29.86 "HgN/A
3:00 AM72 °FPassing clouds.No wind57%29.86 "HgN/A
2:30 AM72 °FClear.No wind53%29.86 "HgN/A
2:00 AM72 °FPassing clouds.No wind61%29.89 "HgN/A
1:30 AM72 °FPassing clouds.No wind61%29.89 "HgN/A
12:30 AM72 °FClear.No wind61%29.89 "HgN/A
11:30 PM
Jan 26
73 °FPassing clouds.No wind53%29.92 "HgN/A
11:00 PM75 °FSprinkles. Passing clouds.No wind47%29.92 "HgN/A
10:30 PM77 °FPassing clouds.7 mph39%29.92 "HgN/A
10:00 PM77 °FClear.6 mph36%29.92 "HgN/A
9:30 PM77 °FPassing clouds.No wind39%29.92 "HgN/A
9:00 PM77 °FMostly cloudy.6 mph36%29.92 "HgN/A
8:30 PM77 °FOvercast.7 mph36%29.92 "HgN/A
8:00 PM79 °FOvercast.9 mph32%29.92 "HgN/A
7:30 PM79 °FOvercast.7 mph34%29.92 "HgN/A
7:00 PM79 °FOvercast.8 mph32%29.89 "HgN/A
6:30 PM79 °FOvercast.8 mph30%29.89 "HgN/A
6:00 PM81 °FPartly sunny.10 mph28%29.89 "HgN/A
5:30 PM81 °FScattered clouds.12 mph28%29.86 "HgN/A
5:00 PM81 °FBroken clouds.13 mph24%29.86 "HgN/A
4:30 PM82 °FSunny.13 mph25%29.86 "Hg10 mi
4:00 PM81 °FSunny.16 mph26%29.89 "Hg10 mi
3:30 PM81 °FSunny.16 mph26%29.89 "Hg10 mi
3:00 PM82 °FSunny.17 mph25%29.89 "Hg10 mi
2:30 PM84 °FSunny.9 mph23%29.89 "Hg10 mi
2:00 PM84 °FPassing clouds.9 mph25%29.92 "HgN/A
1:30 PM84 °FSunny.10 mph23%29.92 "Hg10 mi
Weather by CustomWeather, © 2014

See weather overviewHow to use our weather pages